Wind_Speed
17 18 18 18 19 19 19 20 19 20 20 20 19 19 19 18 19 19 20 20 20 19 18 18 18 19 19 19 18 18 20 21 24 25 15 9 14 16 14 13 14 17 22 25 26 25 24 22 20 17 15 13 12 12 11 13 12 12 14 13 11 9 8 5 4 5 3 3 5 7 5 7 7 6 9 10 10 10 13 10 9 11 8 6 9 12 20 27
17 17 18 18 18 19 19 19 19 19 20 20 20 19 18 18 18 19 20 20 20 19 19 18 18 19 19 19 18 18 18 20 24 22 10 9 16 15 13 14 13 16 20 24 26 26 25 22 20 18 17 14 13 13 11 13 15 14 14 13 14 10 7 5 4 5 4 3 4 7 6 7 7 6 9 10 10 10 12 12 13 17 14 8 9 11 17 25
16 16 17 17 18 18 19 19 19 19 19 20 19 19 18 18 18 19 20 19 19 19 19 19 18 19 20 19 18 18 17 19 21 17 10 14 18 14 14 13 12 15 18 22 24 25 24 21 19 19 18 15 15 14 12 14 15 15 14 14 15 9 7 7 6 7 4 1 2 5 5 6 6 5 8 8 9 10 11 13 15 17 14 8 11 12 14 22
16 16 17 17 17 17 18 18 18 19 19 19 19 19 18 18 18 19 20 19 19 18 18 19 19 19 20 19 18 18 17 17 20 18 14 17 18 16 14 12 12 13 15 20 22 23 22 20 19 18 18 17 16 16 16 16 15 15 14 14 14 11 10 9 9 8 4 3 2 5 3 5 7 5 6 9 10 10 10 12 13 12 9 8 11 13 14 19
17 17 17 17 17 17 17 17 18 18 18 19 19 19 18 19 18 19 20 19 19 18 18 19 19 21 20 20 19 18 15 12 16 17 13 16 19 18 16 14 12 11 14 18 21 22 22 20 18 18 19 19 17 18 19 18 16 15 14 13 14 14 10 5 8 5 4 3 3 3 3 6 8 6 7 9 8 9 11 12 12 10 6 6 10 13 14 17
18 18 18 18 18 18 18 18 18 18 18 18 18 18 17 18 18 19 19 19 19 18 18 18 20 21 20 20 20 19 14 10 16 16 10 14 19 20 18 16 15 13 15 18 22 23 22 21 20 21 22 21 19 19 19 17 18 17 15 13 13 15 13 6 7 5 3 7 5 2 2 6 6 6 7 7 5 7 12 13 13 10 6 6 10 13 14 16
19 19 20 19 19 19 19 19 19 18 18 18 18 18 17 17 18 18 19 19 20 19 18 17 20 21 21 21 20 20 17 13 17 20 15 14 16 19 20 17 17 16 16 19 23 24 24 23 23 24 23 22 21 19 19 16 18 19 16 14 13 14 15 11 8 6 7 9 6 2 2 5 5 5 6 6 7 7 11 15 14 9 7 7 9 13 13 14
21 21 21 21 21 21 21 20 20 20 19 19 18 18 17 17 17 17 18 19 20 20 19 17 19 21 21 21 21 22 16 7 12 22 21 17 15 17 20 20 19 18 17 19 23 25 24 25 25 25 24 23 20 18 19 18 19 21 20 17 14 14 13 11 11 8 8 10 7 5 4 4 5 5 5 8 9 8 13 19 16 9 5 7 9 12 14 14
22 23 23 23 23 22 22 22 22 21 21 20 19 19 18 17 18 17 17 18 19 20 19 19 19 20 21 21 23 21 12 7 16 23 20 17 16 15 18 20 20 19 17 18 21 24 25 25 26 25 23 21 19 19 18 19 21 20 20 19 17 15 13 13 15 11 9 11 9 8 8 6 6 5 6 9 11 11 16 20 17 8 4 7 9 11 13 16
23 24 24 24 24 24 24 24 24 23 23 23 21 20 19 18 18 17 17 17 18 19 19 20 20 20 20 21 25 20 10 10 18 22 19 17 16 15 16 18 20 19 17 17 21 25 25 24 23 23 22 20 19 20 20 20 20 18 17 19 19 19 16 14 16 14 12 13 11 10 9 8 8 8 7 10 12 14 17 19 16 8 4 6 8 10 12 15
24 24 25 25 25 25 25 25 25 25 25 25 23 22 21 19 19 18 17 18 18 18 19 20 21 21 21 22 25 21 13 12 17 22 20 17 15 15 15 16 19 19 18 18 21 24 24 22 20 20 22 22 20 19 21 22 19 17 18 19 18 18 18 17 16 15 14 14 13 12 11 9 9 9 8 10 15 17 17 20 17 10 6 4 5 9 11 14
25 25 26 26 26 26 26 26 26 26 26 26 25 24 23 22 21 19 18 18 18 18 19 19 21 21 22 25 21 15 15 16 18 18 16 17 15 14 16 16 17 18 19 19 21 24 23 22 20 21 22 20 20 18 18 21 21 20 19 19 17 17 19 20 19 17 16 15 13 12 12 12 12 11 8 10 17 18 17 19 18 15 13 6 3 7 8 12
25 25 26 27 27 27 26 27 27 27 26 27 26 25 25 24 23 22 20 19 18 18 19 19 21 21 24 26 15 12 19 20 22 21 18 20 15 14 18 18 16 17 18 19 21 22 24 23 22 23 22 19 20 19 14 14 18 20 20 20 19 19 20 20 20 19 19 17 13 12 13 13 13 14 11 11 17 18 18 19 18 18 18 10 5 4 5 10
26 26 26 27 27 27 27 27 27 27 27 27 27 27 26 25 24 23 22 21 20 19 19 19 20 21 26 24 14 17 22 20 24 26 23 22 16 15 20 20 19 17 17 19 19 19 22 22 22 22 23 23 21 19 18 16 16 17 20 22 21 21 21 18 19 20 21 19 15 14 15 12 11 15 15 14 18 19 18 18 18 18 17 14 10 5 5 7
27 27 28 28 28 27 27 27 27 27 27 28 28 28 27 26 25 24 24 23 22 21 19 20 20 22 27 22 17 22 22 20 25 25 22 21 17 16 20 23 22 18 15 17 19 17 18 20 23 24 23 24 22 21 22 21 20 18 20 23 23 23 21 17 19 21 22 20 18 17 16 13 11 13 18 18 20 19 17 17 18 18 17 17 15 10 6 7
29 29 29 30 30 29 28 28 28 27 27 27 28 28 27 26 26 26 25 23 23 23 21 22 21 22 25 21 19 23 23 20 22 23 23 22 18 16 18 22 22 20 17 16 19 17 18 20 23 25 23 22 25 24 21 21 23 23 23 23 21 23 21 18 19 22 23 20 20 20 18 15 12 14 18 18 20 18 17 17 17 18 17 17 19 15 12 9
30 31 31 31 32 31 31 30 30 28 27 27 27 28 27 26 26 27 27 25 24 23 23 23 22 23 24 22 19 17 20 21 21 23 24 22 19 17 18 20 21 21 19 17 19 19 19 22 23 25 25 25 26 25 23 24 25 24 24 23 21 22 21 19 18 19 23 22 21 21 20 17 12 17 16 18 20 16 16 19 19 20 18 18 20 17 15 11
31 32 32 32 33 33 33 32 32 31 29 28 27 27 27 26 26 28 28 25 24 24 23 23 24 22 16 16 17 13 14 19 22 24 24 23 19 18 19 21 21 21 21 20 22 22 21 22 24 24 27 29 29 29 31 31 25 21 22 23 22 22 21 21 19 18 21 23 22 21 21 19 14 18 17 19 19 14 17 19 19 20 18 19 20 18 17 14
31 32 33 33 34 34 34 34 34 33 32 30 28 26 27 25 24 28 30 26 26 25 21 20 25 21 11 9 10 11 14 14 19 25 24 23 20 19 19 21 22 22 24 24 24 26 23 23 26 29 32 34 34 35 35 31 23 19 21 22 22 22 21 22 21 18 19 22 23 23 22 22 18 17 20 22 17 14 18 19 17 17 20 23 21 20 20 17
31 32 33 33 34 35 34 35 35 34 35 33 30 28 27 26 22 25 29 26 26 27 24 24 30 27 20 17 8 6 15 17 19 23 24 25 22 22 22 21 22 24 27 27 25 27 25 25 32 37 36 33 33 33 31 29 25 22 22 22 23 23 22 22 22 20 19 20 24 25 24 23 21 20 25 24 19 20 23 22 20 21 23 25 22 21 22 19
31 31 32 33 33 34 34 34 35 35 34 34 34 31 29 29 25 26 29 27 26 29 30 29 32 31 25 24 16 8 12 17 18 20 23 25 24 25 25 24 25 28 31 27 24 24 26 31 37 37 33 29 29 30 29 28 28 28 26 24 24 24 23 22 22 21 22 23 24 25 26 26 23 22 26 27 23 25 28 25 23 24 25 25 22 23 24 22
30 31 32 32 32 33 33 33 34 34 32 32 33 31 29 29 29 30 34 33 27 26 32 31 32 34 27 24 25 20 17 18 19 22 24 25 27 29 27 27 29 29 29 28 26 25 30 39 38 32 30 29 27 28 30 30 28 30 29 27 25 23 22 21 22 22 23 24 24 24 26 27 26 24 24 26 27 26 26 25 23 24 24 24 25 25 24 22
30 30 31 31 32 33 33 32 33 33 32 32 31 29 28 28 29 30 34 40 32 25 30 34 32 33 30 26 27 29 29 26 23 24 26 28 31 31 29 30 30 28 29 32 32 31 33 37 34 29 28 29 29 28 30 31 30 30 30 30 27 23 21 21 23 23 23 22 21 22 25 26 25 25 24 25 27 25 25 25 23 23 23 21 21 20 21 23
30 30 30 30 30 32 33 32 31 31 32 32 30 28 29 28 29 31 32 40 41 29 26 31 33 32 29 25 26 32 35 31 27 25 28 32 33 32 31 30 30 30 30 33 35 35 33 27 25 29 29 29 31 30 30 31 32 32 32 31 28 25 23 21 21 23 24 24 21 21 22 23 23 23 24 24 23 24 25 26 24 23 23 20 18 16 18 23
29 29 29 30 29 30 32 33 31 30 29 28 27 27 27 27 26 31 34 35 41 34 23 26 32 31 26 22 27 33 34 35 32 26 28 34 35 35 32 29 31 32 32 32 34 36 34 24 19 26 31 30 31 32 32 31 30 31 33 33 31 26 23 22 21 21 25 26 27 26 20 19 24 25 25 25 24 24 26 27 25 23 23 23 21 17 17 22
29 29 29 30 30 29 30 31 30 30 27 24 25 25 24 25 24 27 31 29 33 29 15 19 22 22 24 27 30 29 28 36 36 28 27 33 35 34 32 31 31 32 31 30 30 35 34 27 23 24 28 31 31 32 33 31 30 30 30 31 31 29 25 24 23 22 24 24 27 30 23 17 23 28 27 27 27 27 29 30 27 25 27 27 24 20 18 21
29 28 29 30 31 31 30 30 30 28 26 24 24 23 21 21 21 22 21 17 17 11 3 12 12 13 18 24 28 29 23 25 33 34 31 31 34 35 33 32 31 31 30 28 29 33 32 29 29 26 26 30 34 34 32 32 32 28 25 25 29 31 28 25 25 24 24 23 22 29 31 24 24 26 26 28 29 27 29 32 30 31 33 30 26 22 18 19
28 28 28 29 30 31 31 30 30 26 25 25 23 21 19 18 16 16 12 7 4 3 5 9 10 13 15 17 26 32 23 10 20 33 34 31 34 36 36 34 32 30 29 31 33 32 29 32 33 29 28 29 33 33 30 30 32 28 21 20 25 30 30 27 26 25 23 22 23 28 31 24 21 25 25 27 32 30 30 31 29 34 37 34 30 24 19 19
29 27 27 27 28 29 29 30 30 27 25 25 23 20 17 14 12 10 7 7 4 3 1 4 6 11 14 16 22 29 26 13 11 19 27 35 35 36 37 35 31 28 29 33 34 27 25 29 31 31 32 30 28 29 28 29 30 27 21 19 21 24 29 30 28 27 24 21 23 28 27 18 16 24 25 25 31 33 35 35 33 36 38 36 32 27 23 23
28 27 26 26 26 27 28 28 28 27 26 23 21 19 15 10 9 9 8 8 7 5 3 1 0 5 11 13 18 24 28 24 15 11 21 35 36 35 34 31 30 29 30 33 34 30 25 24 27 32 32 29 26 25 27 29 27 24 22 21 19 18 23 26 28 29 22 19 25 29 28 20 13 19 24 24 28 30 31 32 35 38 36 33 31 26 23 24
27 27 26 25 25 25 25 24 24 24 24 22 20 17 13 9 8 10 7 6 8 5 4 4 8 4 8 10 15 20 23 26 21 15 21 33 35 36 33 29 32 31 30 33 34 32 30 26 27 31 31 27 25 25 26 27 27 24 23 22 19 18 20 20 23 26 17 14 25 30 28 23 17 22 25 23 23 25 26 25 29 36 32 30 30 27 25 25
26 25 24 25 23 22 21 20 21 21 21 20 18 13 11 11 11 12 12 11 8 6 4 7 15 14 11 11 14 16 18 22 24 21 25 33 35 37 38 34 34 33 31 33 32 30 34 35 29 26 30 31 27 26 27 27 29 27 25 25 20 15 16 14 13 17 15 14 21 26 27 26 25 27 27 24 21 23 28 25 26 33 32 30 32 30 31 29
26 25 24 23 20 19 20 21 21 20 19 18 14 12 10 11 11 12 19 17 8 11 13 16 22 20 16 16 14 13 14 18 24 23 23 31 34 35 39 37 34 34 31 29 29 29 31 35 34 29 30 34 32 29 29 30 31 31 29 28 23 12 9 10 9 10 13 16 20 23 23 25 30 30 28 29 24 20 26 28 29 34 35 36 35 32 34 32
27 26 23 21 19 21 23 22 21 19 18 16 11 11 11 13 12 15 21 18 14 18 22 25 25 21 18 16 14 14 15 16 22 24 22 28 33 33 35 38 37 34 29 25 27 30 25 26 37 39 30 32 37 33 29 28 30 32 31 28 26 20 13 10 10 10 11 13 20 22 21 23 27 27 27 31 30 24 22 25 31 37 38 38 36 32 32 33
27 27 25 22 20 23 23 21 20 19 16 14 11 11 13 14 15 16 16 16 18 22 26 26 23 21 19 17 16 17 18 17 19 25 26 27 32 34 34 37 40 36 30 27 26 29 28 26 34 38 31 29 37 36 29 26 28 30 30 29 31 30 22 14 12 16 16 12 14 21 25 27 25 21 22 25 30 31 27 23 26 33 39 38 34 30 31 34
29 28 27 22 16 19 22 21 21 18 14 12 11 13 14 14 15 15 19 20 20 23 27 24 17 17 18 16 14 14 16 20 20 24 28 30 31 32 31 31 36 39 36 31 26 25 27 26 27 33 35 31 32 36 34 29 25 27 32 34 33 29 24 18 13 16 18 12 11 19 24 26 23 21 22 22 24 29 31 29 25 27 34 35 31 29 29 32
28 26 26 21 14 17 23 23 20 16 12 10 11 13 15 18 19 19 24 22 20 22 24 20 14 14 16 16 17 15 17 18 18 22 24 27 28 29 31 29 31 37 39 34 29 25 23 24 25 31 38 35 30 32 36 33 26 26 32 34 29 24 23 21 13 10 13 9 10 19 22 22 21 19 21 24 24 25 27 32 30 27 31 35 33 32 31 34
25 21 21 18 15 20 23 21 16 13 11 11 13 14 14 18 21 20 20 20 20 21 20 18 16 16 17 19 21 22 25 22 13 18 19 22 23 21 25 26 26 32 39 38 33 28 23 21 24 31 36 35 31 30 34 37 33 27 26 28 28 23 22 23 16 9 9 7 7 15 19 20 20 20 22 25 27 26 24 29 31 28 30 36 37 34 34 36
22 16 14 14 18 24 23 17 13 11 11 13 14 13 13 14 18 19 18 18 19 19 18 18 19 20 20 20 23 23 23 26 20 13 12 13 14 16 19 19 18 19 26 36 38 34 28 21 20 29 35 34 33 35 37 39 38 31 23 26 30 25 21 24 21 14 10 7 6 9 10 13 19 20 20 21 23 26 24 26 31 28 27 32 36 36 35 34
21 12 8 17 25 24 19 15 12 10 11 14 14 14 14 14 15 16 16 16 16 15 16 18 21 23 23 21 22 23 23 26 27 20 13 12 9 8 17 16 13 12 16 28 34 34 32 25 21 24 33 37 38 40 41 38 39 38 31 27 30 28 24 22 23 22 16 7 5 6 7 14 20 19 19 19 20 24 24 24 29 31 27 28 33 35 32 30
21 12 7 20 24 17 12 13 10 10 10 13 14 13 14 15 16 15 13 13 14 14 14 17 20 22 24 23 20 22 24 24 25 24 18 12 12 10 6 5 6 11 12 16 23 30 30 25 25 24 28 38 41 39 38 35 36 39 36 30 28 29 27 18 16 23 23 14 8 6 6 6 8 13 18 19 18 21 23 22 26 31 30 30 32 31 28 27
19 12 10 17 21 16 14 11 9 10 11 13 13 14 15 16 16 14 12 12 13 13 14 16 18 19 20 20 20 21 23 24 25 26 20 15 13 15 16 16 10 6 5 6 13 27 29 22 23 27 27 33 36 33 33 33 33 36 37 33 27 28 30 21 12 17 22 19 15 12 8 2 7 7 13 15 15 17 20 20 23 29 31 31 32 30 28 29
17 11 11 12 24 20 14 10 10 10 12 13 14 15 14 14 14 12 12 12 11 10 12 14 16 17 17 17 19 20 21 24 26 23 20 17 13 12 16 20 16 9 7 6 6 17 27 26 24 25 26 26 32 32 31 31 32 34 38 38 31 28 30 25 17 16 19 20 17 12 8 1 6 8 12 12 11 12 16 19 20 25 29 29 30 31 31 32
17 12 11 12 26 20 11 9 12 12 13 15 16 15 13 12 12 11 11 12 11 11 12 12 13 15 16 16 18 18 18 21 24 22 20 20 17 12 12 17 12 9 10 9 6 7 15 23 24 20 16 16 25 28 28 33 36 35 37 39 37 31 28 26 23 19 16 18 20 14 8 5 8 9 11 12 11 11 14 18 18 22 26 25 24 28 32 34
16 12 10 15 19 14 8 10 13 14 15 16 17 15 14 13 11 10 12 12 11 10 11 12 13 15 16 16 16 17 17 19 23 24 23 23 23 20 9 15 12 11 15 13 11 6 7 13 18 16 11 11 17 21 25 32 35 34 34 37 39 36 31 27 25 21 15 15 19 18 11 9 13 11 12 13 12 11 12 16 18 18 21 23 23 27 32 35
15 13 14 17 15 9 8 11 13 14 16 17 17 15 14 14 13 11 11 10 9 9 11 14 14 14 15 14 15 16 15 17 22 24 24 25 26 26 17 12 12 14 16 14 9 6 12 14 16 17 18 15 10 15 25 30 32 33 33 34 39 39 34 29 26 23 18 14 17 19 13 12 14 13 14 15 15 13 11 15 18 16 20 26 25 25 30 33
12 11 13 17 15 9 11 14 14 15 17 17 17 16 15 16 14 11 9 9 10 11 13 13 12 13 13 14 16 16 16 18 21 20 21 25 28 26 18 10 11 16 15 10 7 11 14 16 17 18 22 21 12 6 14 19 26 34 35 33 36 39 38 34 28 25 21 15 14 17 13 10 14 14 13 13 15 15 13 16 19 17 19 24 23 24 27 29
11 11 11 13 14 13 16 18 17 17 18 17 15 16 16 15 14 12 11 12 12 12 12 11 11 12 13 15 16 17 17 18 20 18 19 24 27 23 19 17 13 11 8 5 9 10 12 14 16 16 19 23 19 14 12 11 14 24 32 35 34 37 40 38 31 24 23 18 14 16 14 9 10 12 10 10 15 17 14 14 20 18 14 16 19 22 25 28
14 14 13 13 14 15 16 17 18 19 18 16 15 16 15 13 12 13 13 13 13 12 11 12 13 13 14 15 16 18 18 16 19 19 19 22 22 17 18 21 13 2 4 11 12 10 10 11 13 14 18 19 18 19 19 14 11 14 24 32 33 33 37 39 34 26 23 21 16 16 18 13 7 8 12 13 14 18 16 13 20 20 13 12 16 18 19 24
16 15 14 15 15 15 14 15 16 18 17 16 17 16 13 12 13 13 13 13 15 14 13 13 14 14 15 16 16 18 18 17 18 19 18 20 19 14 15 18 13 6 11 16 14 12 10 10 12 14 17 17 14 16 17 14 12 11 16 25 31 33 34 36 36 31 26 24 20 17 19 19 10 8 16 17 15 18 17 13 18 18 10 8 14 17 17 18
19 15 14 17 17 14 14 14 14 17 18 17 16 14 12 14 16 16 15 14 15 16 15 13 14 16 17 16 17 18 18 17 17 16 17 17 16 14 15 14 12 9 11 16 18 16 14 14 14 13 15 17 14 12 15 14 14 15 17 17 21 27 31 33 35 34 29 26 23 20 18 20 16 12 16 18 17 17 15 13 17 15 8 7 13 16 17 16
24 16 16 19 20 15 15 16 15 16 17 15 15 15 15 16 17 17 18 16 13 14 14 14 15 18 18 17 17 17 17 17 18 18 18 18 16 15 16 17 15 14 15 19 20 16 15 15 14 12 15 19 15 10 13 12 12 15 18 15 14 19 25 29 31 32 31 28 26 23 18 17 20 18 15 16 17 16 14 13 14 12 10 12 15 15 15 14
Wind_Direction
311 309 307 306 303 302 301 299 299 298 297 296 295 295 294 292 290 288 287 287 288 287 286 284 283 283 282 282 279 274 266 259 255 252 243 223 229 234 238 240 235 228 221 216 213 214 216 219 223 226 227 224 226 221 216 229 230 230 238 248 257 267 273 259 252 244 210 220 181 155 154 135 127 128 130 126 121 121 127 132 115 132 173 194 163 158 163 162
314 313 311 309 307 306 304 302 301 299 298 297 296 295 294 293 290 287 285 284 284 285 285 284 283 281 279 280 281 277 271 265 257 250 232 226 239 236 236 238 235 230 222 217 214 212 213 216 219 222 226 222 224 229 220 226 227 228 238 245 248 260 269 222 228 240 145 108 166 168 188 150 124 134 142 137 133 131 130 125 123 152 189 207 160 155 164 164
319 317 315 312 311 310 308 307 305 303 301 299 298 297 295 293 290 287 284 283 282 282 283 282 282 279 279 278 279 280 276 271 262 252 235 237 242 235 231 233 232 230 222 218 215 213 211 211 215 218 222 218 218 227 225 225 226 230 235 246 254 263 261 226 227 243 186 166 188 158 191 170 152 137 141 151 142 137 138 135 137 166 191 184 162 156 162 169
325 323 320 317 316 314 312 311 308 307 304 301 300 298 297 294 290 288 285 283 282 281 280 280 279 277 277 276 278 279 280 284 274 257 237 234 238 236 229 226 226 227 221 216 213 212 210 206 210 215 217 216 217 223 225 223 221 230 234 241 256 266 279 260 229 222 186 243 232 144 160 162 173 155 140 157 151 148 151 151 151 172 186 161 161 158 164 173
329 326 324 322 320 319 316 315 312 310 307 304 302 299 297 293 291 288 285 285 282 280 278 277 277 274 274 275 276 276 282 295 277 256 231 224 233 237 232 227 227 223 218 214 209 208 205 202 205 209 213 215 217 221 224 225 220 230 237 239 256 262 270 263 229 207 132 223 223 173 174 140 163 158 148 163 165 163 158 164 170 184 198 152 154 160 168 174
328 326 324 323 322 321 320 318 316 313 310 307 304 303 300 295 291 287 286 285 282 279 275 273 273 272 272 272 272 274 270 261 265 268 251 226 225 232 234 228 227 223 215 210 205 204 200 197 202 207 212 214 216 222 224 224 223 233 241 240 250 256 255 251 246 232 186 230 218 201 175 144 167 162 161 171 168 162 155 168 183 194 215 172 154 160 171 176
326 324 322 322 321 321 320 319 317 314 312 310 307 305 302 298 293 288 286 283 281 279 274 272 270 270 270 270 270 270 264 258 270 275 266 245 227 225 230 228 225 223 217 210 203 199 197 196 202 207 211 216 217 222 226 225 226 234 242 241 240 249 264 272 249 214 209 234 219 199 183 166 179 160 167 164 151 159 154 164 181 195 213 203 164 155 168 175
323 321 320 319 319 319 318 316 315 314 313 311 310 308 305 302 296 292 287 281 279 277 275 271 267 267 268 268 269 265 266 266 255 258 257 249 236 224 224 226 225 224 221 216 204 196 198 200 203 207 212 218 219 223 227 228 229 234 239 243 243 245 257 259 242 219 201 222 230 224 223 206 189 172 180 166 151 150 146 156 179 193 189 199 175 156 171 177
320 319 318 316 316 316 314 313 312 311 311 309 309 308 307 305 300 295 289 283 279 276 274 271 267 266 265 266 266 262 265 254 238 249 257 251 244 230 223 223 224 225 222 220 205 195 199 204 205 208 214 220 223 228 229 231 233 235 237 241 246 247 243 237 242 248 225 224 235 230 229 229 208 200 193 173 161 154 149 158 180 193 157 179 181 167 176 181
318 316 314 313 313 312 311 310 309 309 307 306 306 305 306 304 301 297 292 287 281 277 273 269 266 264 263 263 262 257 256 261 254 254 257 256 250 236 226 221 221 222 219 219 204 194 200 206 208 211 219 225 228 233 233 233 237 239 238 240 244 247 245 238 239 243 236 231 232 230 234 235 219 212 201 180 172 165 157 161 174 182 148 165 181 177 180 182
316 314 312 310 309 308 308 306 305 305 304 303 303 302 301 300 298 297 294 289 284 280 273 268 265 262 262 259 259 258 252 255 263 263 260 256 247 238 233 223 221 219 214 216 202 196 203 206 206 213 222 226 228 236 239 236 239 243 242 242 245 244 244 243 238 234 232 231 229 235 244 239 222 215 211 187 174 168 162 163 170 178 169 151 166 182 188 185
317 315 312 310 308 307 305 303 302 301 301 299 299 299 298 296 295 294 293 290 286 281 275 271 265 262 259 256 257 261 251 238 245 258 263 258 244 233 235 228 222 218 213 211 199 197 205 207 207 214 221 225 229 235 241 241 239 245 243 241 243 242 244 242 237 233 230 230 227 232 242 236 224 217 211 189 176 172 171 170 170 174 177 172 152 175 193 191
320 318 316 313 310 308 306 303 301 299 298 296 295 295 293 293 291 290 289 287 285 281 277 273 267 263 258 256 255 251 245 237 238 240 241 252 250 230 230 228 220 212 210 206 197 200 205 208 212 217 221 226 230 231 239 244 237 240 238 238 244 245 247 241 233 231 227 230 225 222 235 235 228 220 208 191 181 174 172 174 174 172 177 191 190 172 190 198
325 323 321 318 315 312 310 306 303 300 298 295 293 291 290 290 288 287 285 283 282 281 278 274 269 265 260 257 251 244 243 239 241 241 239 246 249 232 226 224 219 209 206 202 194 204 210 209 215 222 225 227 230 234 242 245 237 236 234 233 239 244 248 239 230 226 222 226 219 219 234 237 235 219 203 189 179 174 173 176 179 175 178 193 205 205 193 196
330 327 325 323 320 318 315 311 307 304 300 296 293 289 288 286 285 283 281 280 279 278 277 273 270 267 265 262 250 244 242 237 240 243 243 245 239 229 226 223 220 213 210 201 189 201 216 214 218 223 227 228 231 238 242 242 236 232 231 230 229 237 246 241 230 220 219 222 213 219 229 237 244 203 181 178 175 174 179 181 182 181 182 187 196 215 214 194
333 330 330 327 324 322 319 316 313 309 305 300 295 291 288 285 284 280 277 277 275 275 274 271 269 267 267 264 250 245 243 239 242 245 240 239 232 220 226 227 222 219 217 205 190 197 216 218 220 224 226 227 227 232 238 240 233 225 226 230 226 229 237 241 235 217 213 216 215 218 222 237 238 180 168 177 179 179 183 185 185 184 185 186 190 207 216 199
339 337 335 331 329 327 324 321 317 314 311 307 301 295 289 285 283 279 276 273 271 271 268 268 268 265 265 263 257 254 252 239 233 242 239 235 226 207 214 220 215 217 216 210 200 199 211 216 219 223 223 225 223 223 228 232 228 218 219 227 229 229 229 234 237 220 209 210 217 216 219 237 209 170 178 181 178 185 186 185 189 189 187 189 191 200 215 211
349 347 344 341 337 334 331 327 322 319 315 312 310 304 296 290 286 280 275 270 269 267 265 267 263 262 267 262 255 248 255 247 230 233 238 235 218 197 205 210 204 207 207 209 210 204 209 214 216 220 221 221 218 214 217 221 220 214 214 219 226 231 230 229 230 220 207 207 219 217 217 229 195 166 181 180 177 191 189 186 195 198 190 190 196 201 213 218
356 354 352 350 345 343 341 335 330 326 320 317 314 310 302 294 289 283 276 270 266 261 259 261 251 245 236 232 240 232 235 240 230 228 232 234 215 191 202 207 201 202 201 206 210 205 206 210 213 217 218 216 214 214 217 220 220 220 220 219 223 228 231 231 227 219 209 207 217 221 219 222 211 184 177 179 187 193 188 188 195 198 193 194 196 197 209 219
354 353 352 352 348 348 347 342 339 334 328 324 317 315 310 301 295 286 276 268 264 258 247 247 251 246 234 228 223 234 238 229 224 225 226 230 212 190 197 202 197 200 203 203 206 205 204 209 214 215 216 215 215 217 220 224 226 230 230 226 225 226 229 232 230 219 212 213 215 220 222 220 221 207 191 194 204 200 196 196 196 196 202 209 202 194 209 221
349 348 348 349 347 346 348 346 343 340 336 331 326 327 325 320 314 299 284 267 257 258 251 243 250 252 239 230 214 197 242 240 228 222 221 223 209 194 197 197 195 202 205 202 204 207 207 216 219 217 216 215 217 219 221 225 227 233 237 236 231 227 228 230 233 222 208 215 218 215 220 223 227 222 210 207 203 200 206 210 207 204 214 224 212 197 206 218
345 345 344 345 345 343 345 346 344 342 339 334 332 333 332 329 324 314 304 283 254 247 256 246 241 248 243 233 223 207 214 225 223 217 213 213 206 199 198 197 198 203 203 200 203 205 211 221 222 217 217 217 219 219 220 224 226 230 236 240 239 230 226 227 233 227 209 213 220 217 221 224 226 227 222 208 194 199 215 222 216 213 224 227 213 204 208 214
343 344 343 344 344 340 342 345 343 341 338 338 338 336 333 331 326 320 313 300 276 241 248 252 243 246 244 234 226 219 217 215 214 212 207 206 206 202 199 199 201 203 203 201 204 205 212 223 221 215 217 217 220 220 219 223 226 228 230 235 239 232 227 224 224 225 218 219 222 221 228 230 226 226 229 219 206 207 216 222 218 219 231 226 212 215 218 218
342 342 341 343 343 340 340 342 342 341 340 340 339 338 334 330 329 323 315 307 292 262 246 254 249 245 243 236 227 224 226 225 217 209 208 206 205 204 201 200 202 204 207 206 207 213 218 224 220 215 217 216 218 220 218 219 223 227 227 228 232 232 232 231 226 220 218 221 221 222 230 232 230 229 229 225 218 211 206 210 214 216 226 224 221 232 230 226
341 341 341 342 344 342 340 340 343 344 341 338 335 336 332 329 332 327 321 315 302 288 268 256 251 246 241 232 225 224 227 230 220 207 212 210 204 205 203 202 207 208 209 210 212 220 224 223 218 214 215 216 218 219 218 218 221 225 227 227 228 232 234 236 237 225 216 217 218 226 234 229 228 234 234 226 219 218 210 205 207 208 216 223 231 245 239 227
340 342 342 341 343 344 341 341 342 342 337 332 331 332 331 331 333 330 328 316 307 310 287 252 252 247 236 225 223 219 222 233 225 203 207 215 207 205 204 203 209 212 210 212 216 224 227 222 218 215 213 215 217 219 219 216 221 226 226 226 227 232 235 234 236 233 229 224 216 221 231 233 227 227 233 232 223 224 215 204 202 202 209 223 236 245 242 229
340 342 342 342 343 343 343 341 339 340 334 329 329 328 329 334 334 336 335 308 302 331 216 222 234 230 225 224 221 208 208 236 230 208 201 211 210 204 207 206 207 212 208 209 220 224 222 218 218 216 213 214 216 218 217 214 221 227 224 223 224 229 234 235 236 236 239 241 231 221 218 225 230 224 230 235 228 226 216 203 196 198 209 225 238 240 237 233
340 342 344 344 344 344 343 340 338 339 334 328 327 328 329 334 338 342 337 288 285 55 164 203 214 210 201 211 217 207 204 229 230 216 200 203 211 203 207 211 208 212 206 207 220 222 218 217 216 215 214 215 217 217 215 213 220 226 222 221 222 225 230 233 237 239 240 243 245 234 220 220 230 229 230 231 227 227 222 216 206 203 212 223 231 230 228 233
341 342 344 345 345 344 341 338 338 338 334 331 326 326 328 333 340 334 301 258 282 30 195 240 226 209 191 193 205 207 213 211 220 234 207 199 209 206 209 213 210 215 213 213 223 224 220 220 216 217 218 217 218 217 215 214 219 222 221 223 224 222 224 228 233 240 245 245 243 238 230 230 234 229 225 220 222 222 220 225 222 211 212 220 224 223 224 232
340 341 343 346 345 343 342 340 338 336 334 330 325 325 326 333 328 296 257 244 290 4 50 327 18 207 202 198 206 214 224 218 207 242 217 201 206 207 210 215 213 219 221 220 227 227 225 224 217 218 221 219 219 217 214 215 216 216 217 223 226 223 221 223 227 233 243 246 239 236 234 235 238 235 230 221 221 222 220 224 218 207 207 215 218 218 226 234
339 341 342 344 345 345 345 341 336 333 332 329 325 326 327 322 287 261 253 252 287 342 80 61 27 327 237 223 226 228 233 225 211 215 209 199 202 205 207 212 212 219 224 222 225 227 228 228 219 218 220 217 216 217 214 213 213 212 211 214 221 221 217 218 219 221 231 238 233 233 235 236 235 233 233 231 224 221 226 224 203 194 197 205 210 218 232 235
338 340 340 342 345 344 342 341 340 336 334 332 327 327 332 311 261 235 256 270 287 344 14 360 349 330 298 281 263 243 233 225 216 213 206 197 199 203 204 206 204 208 217 218 217 220 225 227 222 217 216 213 211 211 211 209 207 207 205 205 210 210 208 213 211 214 228 238 229 227 230 235 238 234 232 236 231 218 222 223 200 189 193 202 210 226 238 231
338 338 340 340 337 341 348 350 349 344 340 338 332 329 318 288 266 254 266 275 303 333 331 333 330 324 313 298 279 254 238 224 214 214 209 202 203 206 207 208 205 205 212 214 211 212 219 224 223 219 213 211 209 206 205 203 199 202 202 200 205 205 195 205 212 219 232 234 228 224 227 233 239 238 233 233 233 226 220 218 212 205 201 204 212 228 236 224
338 336 340 337 335 349 359 355 349 348 345 341 340 325 292 270 277 274 272 286 315 320 325 331 324 318 309 286 268 256 249 232 214 212 211 204 206 210 210 210 210 211 214 214 213 212 213 217 217 216 210 206 208 208 204 199 196 202 203 201 208 211 204 203 209 219 230 230 222 218 223 232 234 235 234 232 231 231 225 217 220 215 204 203 212 223 227 221
336 337 341 342 351 357 356 350 346 347 347 344 334 302 280 273 276 274 285 311 324 322 328 330 316 304 296 279 269 260 249 245 224 211 212 212 211 213 212 212 211 211 214 215 215 213 217 223 216 213 211 206 207 207 203 199 199 201 203 207 212 210 209 216 221 221 226 233 221 213 221 231 237 241 237 231 228 227 224 222 226 217 203 202 209 215 219 220
340 343 342 342 355 352 343 343 344 346 351 348 325 288 277 278 281 306 333 336 333 332 334 331 309 285 282 276 274 262 251 256 240 217 214 215 217 219 215 215 214 211 213 215 215 213 217 225 216 209 212 211 207 204 201 203 202 196 200 209 212 209 212 223 232 224 223 232 224 217 224 228 234 243 235 226 226 223 218 218 222 215 202 199 203 213 215 212
348 345 339 340 341 335 337 339 341 356 5 343 312 293 286 282 289 325 343 336 334 336 335 330 308 287 289 290 296 304 307 288 241 220 220 214 218 225 220 219 217 214 215 216 221 222 222 227 216 205 209 210 206 202 203 208 206 196 202 209 208 208 216 225 236 231 221 230 225 220 227 223 218 228 228 221 222 220 213 212 216 214 204 196 200 215 213 203
351 346 341 341 328 324 332 334 338 2 0 321 306 302 295 287 290 312 332 333 329 324 321 317 306 303 302 301 310 316 322 319 264 225 229 218 210 214 218 222 221 218 218 219 226 229 229 234 220 206 206 205 198 197 203 209 212 208 206 204 202 204 209 214 225 235 224 229 228 221 228 227 216 215 218 217 217 217 214 209 210 213 204 196 202 213 208 199
348 355 348 319 308 317 325 332 344 352 331 315 316 312 307 305 297 297 309 321 323 313 305 305 307 309 306 307 317 314 312 317 307 272 253 244 222 201 203 211 211 212 213 215 226 231 229 239 229 206 201 198 193 197 203 206 209 216 217 204 203 209 208 206 214 228 231 229 225 223 230 236 230 219 211 212 211 211 214 210 206 205 201 199 203 206 202 199
339 7 357 299 301 310 320 341 347 326 310 312 316 314 311 312 303 298 304 307 313 311 300 301 305 305 305 308 314 312 307 308 311 308 290 291 308 223 202 199 199 204 198 201 216 226 226 238 241 210 195 196 198 200 203 203 201 208 214 206 200 205 209 210 214 220 227 240 228 219 227 233 235 225 207 207 209 205 209 211 205 202 202 202 201 201 205 206
339 356 326 297 301 313 338 357 339 307 309 312 312 315 311 307 303 304 308 299 297 298 294 298 299 298 302 304 304 310 309 302 305 309 290 281 337 340 283 266 233 216 208 204 212 218 220 229 238 225 202 200 204 204 203 204 202 203 208 208 201 200 203 207 212 212 218 233 236 234 249 236 224 216 204 204 207 202 204 209 206 203 201 199 197 203 215 213
343 337 332 315 312 336 4 354 324 315 319 314 314 316 309 308 309 304 300 296 295 292 288 291 293 295 299 300 304 311 308 299 298 305 299 287 315 333 334 333 313 261 277 278 225 213 219 228 233 234 226 210 204 204 203 204 206 205 206 210 207 201 203 207 209 205 208 221 231 239 253 48 85 156 186 190 195 193 196 202 203 201 200 199 199 204 213 207
344 348 24 325 299 322 354 336 320 322 315 309 313 315 311 311 313 305 296 297 298 295 292 289 291 296 298 302 309 313 308 299 292 295 303 311 320 326 334 333 319 314 329 301 222 204 218 227 229 236 244 224 201 199 205 205 207 210 207 209 210 206 205 208 212 208 205 212 218 227 238 152 103 139 159 170 182 182 187 193 194 195 198 201 200 203 208 204
343 2 31 304 292 318 350 329 325 322 315 316 314 314 318 315 313 311 305 301 296 293 295 295 294 293 296 304 307 305 304 296 289 291 301 314 315 306 341 0 341 330 336 293 239 199 217 226 228 236 252 231 198 192 200 202 207 213 208 206 210 210 206 207 211 213 213 211 207 213 230 183 145 152 160 169 180 178 181 187 189 192 195 198 200 201 204 200
343 349 340 304 306 328 335 322 328 319 313 318 316 316 317 315 313 308 306 305 298 294 292 292 295 292 294 303 303 299 296 285 283 292 303 310 296 276 313 13 1 338 327 283 233 213 258 249 240 240 243 225 199 192 199 199 202 212 212 205 207 210 208 205 206 210 214 209 203 211 217 161 139 147 158 163 173 175 176 181 186 190 190 194 200 199 199 201
338 334 321 319 323 324 317 324 324 313 312 315 315 316 312 312 313 304 304 308 302 304 300 293 296 296 295 302 305 303 296 285 285 293 306 312 297 282 294 336 349 338 312 274 242 275 290 268 251 251 250 247 228 200 203 203 201 208 212 207 204 208 211 208 206 209 207 204 204 208 200 154 143 150 151 158 171 173 173 179 180 181 185 192 200 199 198 202
329 325 321 325 327 318 315 317 310 307 311 309 307 308 306 306 308 304 305 308 305 308 305 297 298 300 300 302 302 304 303 296 293 299 310 307 295 290 291 298 332 325 295 278 306 314 294 264 249 253 253 257 268 230 209 211 208 207 210 209 203 203 209 210 209 206 199 199 202 197 188 160 156 158 153 164 178 176 178 184 179 178 188 194 197 196 194 193
308 301 311 317 314 309 307 309 309 308 306 303 301 301 299 298 303 311 313 310 309 308 302 299 299 298 304 306 301 302 305 303 302 308 312 300 292 293 287 282 304 306 275 311 338 323 306 273 257 265 263 257 261 267 264 250 221 207 208 210 205 201 205 210 211 204 196 200 200 189 188 174 158 167 171 171 175 174 172 175 174 175 184 190 186 185 189 187
298 288 306 303 295 300 304 305 308 305 303 303 298 294 296 297 302 310 312 309 308 306 301 299 298 298 303 305 302 301 303 306 308 312 315 308 305 308 293 280 282 305 359 349 343 337 324 284 268 283 282 270 263 264 265 252 233 222 214 210 206 203 204 207 211 209 201 202 203 194 197 197 173 166 175 170 167 170 166 162 169 172 172 174 171 168 176 183
306 284 302 302 291 299 305 302 303 303 303 303 295 293 300 303 302 305 307 309 307 302 299 296 296 298 302 301 300 298 299 302 303 303 308 311 310 311 298 283 274 304 354 356 349 344 335 305 300 304 292 280 264 260 263 246 233 249 235 215 207 205 203 204 209 212 207 202 203 199 197 198 188 148 157 159 150 154 160 156 163 171 176 184 183 173 169 182
316 275 280 294 292 299 306 304 304 303 302 302 297 294 299 300 303 307 305 300 297 295 294 294 296 298 300 300 298 297 298 299 298 296 298 302 305 300 288 277 272 287 330 346 342 342 343 330 325 319 291 268 246 253 271 249 227 248 258 240 219 209 204 203 205 209 208 201 200 202 195 193 189 162 152 160 157 156 156 146 152 165 169 169 179 178 178 196
326 281 260 276 285 292 300 302 304 301 298 301 300 299 302 301 299 302 300 296 296 298 297 296 297 297 297 297 298 300 300 295 291 289 285 284 291 289 270 261 271 284 301 317 323 329 337 332 330 328 296 267 243 252 274 250 221 245 258 252 230 212 207 204 202 206 208 203 201 202 195 188 192 190 176 168 168 170 166 156 159 166 156 149 155 162 172 188
Height
3142 3141 3140 3139 3138 3137 3136 3135 3134 3133 3133 3132 3131 3130 3130 3129 3128 3127 3126 3125 3125 3125 3125 3125 3124 3123 3122 3121 3121 3121 3121 3121 3121 3121 3124 3126 3126 3127 3128 3130 3131 3132 3134 3136 3138 3140 3143 3145 3146 3148 3149 3150 3151 3153 3155 3157 3159 3160 3160 3160 3159 3158 3157 3157 3158 3156 3154 3154 3155 3155 3155 3155 3155 3156 3156 3156 3157 3157 3158 3159 3159 3159 3157 3156 3157 3157 3158 3160
3141 3140 3139 3138 3137 3136 3135 3134 3133 3132 3131 3130 3129 3129 3128 3128 3127 3126 3125 3124 3124 3124 3123 3123 3123 3122 3121 3120 3120 3119 3119 3119 3118 3119 3122 3123 3123 3125 3127 3128 3129 3130 3132 3134 3136 3139 3141 3144 3146 3147 3148 3149 3151 3153 3154 3157 3158 3158 3159 3158 3157 3156 3156 3156 3157 3156 3153 3153 3155 3155 3155 3155 3156 3156 3156 3157 3158 3158 3159 3159 3159 3158 3157 3157 3157 3158 3158 3160
3140 3139 3138 3137 3136 3135 3133 3132 3131 3131 3130 3129 3128 3127 3127 3126 3125 3124 3123 3123 3122 3122 3122 3121 3121 3120 3119 3119 3118 3118 3118 3117 3116 3117 3120 3121 3121 3123 3125 3126 3127 3128 3130 3132 3135 3138 3140 3143 3145 3146 3147 3149 3151 3153 3154 3156 3157 3157 3157 3156 3155 3155 3155 3155 3156 3155 3153 3153 3155 3155 3155 3155 3156 3156 3155 3156 3157 3158 3159 3159 3159 3158 3156 3157 3158 3159 3159 3160
3139 3138 3136 3135 3134 3133 3132 3131 3130 3129 3128 3127 3126 3126 3125 3124 3124 3123 3121 3121 3121 3121 3121 3120 3119 3118 3118 3117 3117 3117 3116 3116 3114 3114 3117 3118 3119 3120 3122 3124 3125 3127 3128 3131 3133 3136 3139 3141 3143 3145 3147 3148 3150 3153 3154 3155 3156 3156 3156 3155 3154 3154 3155 3154 3155 3154 3152 3153 3156 3155 3155 3155 3155 3155 3156 3156 3157 3158 3159 3159 3159 3158 3157 3157 3158 3159 3160 3161
3138 3136 3135 3134 3133 3132 3131 3130 3129 3128 3127 3126 3125 3124 3124 3123 3122 3121 3120 3120 3119 3119 3119 3118 3118 3116 3116 3116 3116 3116 3116 3116 3111 3111 3115 3116 3117 3118 3120 3122 3123 3125 3127 3129 3131 3134 3137 3139 3142 3144 3145 3147 3150 3152 3153 3154 3155 3155 3155 3155 3154 3154 3154 3154 3155 3153 3150 3154 3157 3156 3155 3155 3155 3155 3155 3156 3157 3157 3159 3159 3159 3158 3157 3157 3158 3159 3160 3161
3136 3135 3134 3132 3131 3130 3129 3128 3127 3126 3125 3124 3123 3123 3122 3121 3120 3119 3118 3118 3117 3117 3117 3117 3116 3115 3115 3115 3114 3114 3115 3114 3110 3110 3114 3115 3116 3117 3119 3121 3122 3123 3125 3126 3129 3131 3135 3138 3141 3142 3144 3146 3148 3150 3152 3153 3154 3153 3153 3154 3153 3152 3153 3154 3155 3152 3151 3155 3157 3156 3154 3154 3155 3155 3155 3156 3156 3156 3157 3158 3158 3158 3157 3158 3159 3159 3160 3162
3135 3133 3132 3131 3130 3129 3128 3127 3125 3124 3123 3122 3121 3121 3120 3119 3118 3118 3117 3116 3115 3115 3115 3115 3114 3113 3113 3113 3113 3113 3113 3113 3111 3110 3111 3113 3114 3116 3117 3119 3120 3121 3123 3124 3126 3129 3132 3136 3138 3141 3142 3144 3146 3149 3151 3152 3153 3152 3152 3153 3152 3151 3151 3152 3154 3152 3152 3156 3156 3155 3155 3154 3155 3155 3155 3156 3157 3156 3157 3158 3157 3158 3158 3158 3159 3159 3161 3162
3133 3132 3130 3129 3128 3127 3126 3125 3123 3122 3122 3121 3120 3119 3118 3118 3117 3116 3115 3114 3113 3113 3113 3113 3112 3112 3112 3111 3111 3111 3111 3112 3110 3107 3108 3111 3113 3114 3116 3117 3118 3120 3121 3123 3125 3128 3131 3134 3137 3139 3141 3142 3145 3148 3150 3151 3151 3151 3151 3151 3152 3152 3151 3151 3153 3152 3153 3155 3155 3155 3155 3154 3154 3155 3156 3156 3157 3156 3157 3159 3158 3158 3159 3158 3159 3160 3160 3162
3132 3130 3128 3127 3126 3125 3124 3122 3121 3120 3119 3119 3118 3117 3116 3116 3115 3114 3113 3112 3112 3111 3111 3111 3111 3110 3110 3110 3109 3109 3110 3111 3108 3106 3108 3110 3111 3113 3114 3115 3117 3118 3120 3122 3124 3127 3130 3133 3135 3138 3140 3142 3145 3147 3148 3149 3148 3148 3149 3150 3150 3151 3151 3152 3152 3151 3152 3153 3154 3154 3154 3154 3154 3154 3155 3155 3156 3156 3157 3159 3158 3158 3159 3159 3160 3160 3161 3162
3130 3128 3127 3125 3124 3123 3122 3120 3119 3118 3117 3116 3116 3115 3114 3113 3112 3112 3111 3110 3110 3109 3109 3109 3108 3108 3108 3107 3106 3107 3109 3109 3107 3105 3107 3109 3110 3112 3113 3114 3115 3117 3119 3121 3122 3125 3129 3132 3135 3138 3140 3142 3144 3145 3146 3147 3146 3147 3148 3148 3149 3149 3150 3151 3151 3151 3151 3152 3152 3152 3152 3153 3153 3154 3154 3155 3156 3156 3157 3158 3158 3158 3158 3159 3160 3161 3161 3163
3128 3127 3125 3123 3122 3121 3119 3118 3117 3116 3115 3113 3113 3112 3112 3111 3110 3109 3109 3108 3107 3107 3106 3106 3106 3106 3106 3105 3104 3105 3108 3109 3106 3104 3106 3107 3109 3110 3111 3113 3114 3116 3118 3119 3121 3124 3128 3132 3135 3138 3139 3140 3142 3144 3144 3144 3145 3146 3146 3146 3146 3146 3147 3148 3149 3150 3150 3150 3151 3151 3152 3152 3152 3153 3153 3154 3155 3156 3157 3158 3158 3158 3158 3159 3160 3161 3161 3163
3126 3124 3123 3121 3119 3119 3117 3115 3114 3113 3112 3111 3110 3109 3109 3108 3108 3107 3106 3106 3105 3105 3104 3104 3103 3103 3103 3101 3103 3105 3106 3106 3105 3104 3105 3105 3107 3109 3110 3111 3113 3114 3116 3118 3120 3124 3128 3131 3134 3136 3137 3138 3140 3142 3142 3143 3144 3144 3144 3144 3144 3145 3145 3146 3147 3148 3148 3149 3150 3151 3151 3150 3150 3151 3153 3153 3154 3155 3156 3157 3158 3159 3158 3159 3160 3161 3161 3162
3124 3122 3120 3118 3117 3116 3114 3113 3112 3110 3109 3108 3107 3106 3105 3105 3105 3104 3104 3103 3102 3102 3102 3101 3100 3101 3099 3098 3102 3104 3102 3103 3103 3103 3104 3104 3106 3108 3108 3110 3112 3113 3115 3117 3119 3123 3126 3129 3132 3134 3136 3137 3138 3140 3140 3141 3142 3142 3143 3143 3143 3143 3142 3143 3144 3145 3146 3147 3148 3150 3148 3147 3148 3149 3151 3152 3153 3154 3155 3157 3158 3159 3159 3159 3159 3160 3160 3161
3122 3120 3118 3116 3114 3113 3111 3110 3109 3107 3106 3105 3104 3103 3102 3102 3101 3101 3101 3100 3100 3099 3099 3098 3098 3098 3095 3096 3101 3101 3099 3101 3100 3100 3102 3103 3105 3107 3107 3108 3110 3112 3114 3116 3119 3122 3125 3127 3130 3132 3133 3135 3136 3138 3138 3139 3139 3140 3141 3141 3141 3140 3139 3140 3142 3143 3144 3145 3147 3148 3146 3145 3145 3146 3148 3150 3152 3153 3155 3156 3158 3159 3159 3159 3159 3160 3161 3161
3120 3118 3116 3114 3112 3111 3109 3107 3106 3104 3103 3102 3100 3099 3099 3099 3098 3098 3097 3097 3097 3096 3096 3095 3095 3094 3092 3094 3098 3097 3097 3098 3097 3099 3101 3102 3104 3105 3106 3107 3109 3111 3113 3115 3117 3121 3124 3126 3128 3129 3130 3132 3135 3136 3136 3136 3137 3138 3138 3136 3138 3138 3137 3138 3138 3140 3141 3143 3144 3145 3145 3144 3143 3143 3145 3148 3150 3152 3154 3155 3157 3159 3160 3160 3160 3160 3161 3161
3118 3116 3114 3112 3110 3108 3106 3104 3103 3101 3100 3098 3097 3096 3095 3095 3094 3094 3093 3094 3094 3093 3093 3092 3092 3092 3090 3091 3094 3093 3095 3096 3097 3098 3099 3100 3102 3105 3106 3107 3108 3111 3112 3114 3116 3120 3123 3125 3126 3127 3129 3130 3131 3132 3134 3134 3132 3133 3134 3133 3134 3135 3135 3135 3135 3136 3138 3140 3142 3142 3143 3142 3141 3142 3144 3147 3149 3151 3153 3155 3156 3158 3159 3160 3160 3160 3161 3161
3116 3114 3112 3110 3108 3106 3104 3102 3100 3098 3097 3095 3094 3092 3092 3092 3091 3089 3089 3090 3090 3090 3090 3089 3089 3089 3088 3088 3091 3092 3092 3094 3095 3096 3096 3098 3100 3104 3106 3106 3108 3110 3112 3114 3115 3118 3121 3123 3124 3124 3126 3127 3128 3130 3131 3128 3126 3128 3130 3131 3131 3132 3132 3133 3132 3133 3135 3138 3139 3140 3141 3140 3140 3141 3144 3146 3147 3150 3152 3153 3154 3155 3158 3159 3159 3160 3160 3161
3114 3112 3110 3108 3105 3104 3102 3100 3097 3096 3094 3093 3091 3089 3088 3088 3087 3085 3085 3086 3087 3087 3087 3086 3086 3086 3086 3086 3088 3090 3090 3090 3092 3093 3094 3096 3099 3103 3105 3105 3107 3110 3111 3113 3114 3116 3119 3120 3122 3122 3122 3122 3122 3124 3122 3119 3122 3125 3126 3128 3129 3129 3130 3130 3130 3130 3132 3135 3137 3138 3139 3140 3139 3140 3143 3145 3146 3149 3151 3151 3152 3154 3156 3157 3158 3159 3159 3160
3113 3111 3109 3106 3104 3102 3100 3097 3095 3093 3091 3090 3089 3087 3084 3084 3084 3080 3080 3082 3082 3082 3083 3082 3081 3083 3084 3083 3085 3087 3087 3088 3089 3090 3092 3094 3097 3101 3103 3104 3106 3108 3110 3111 3111 3113 3115 3117 3118 3116 3114 3114 3116 3117 3116 3118 3123 3124 3125 3126 3126 3127 3127 3127 3127 3128 3130 3133 3135 3136 3137 3138 3139 3139 3140 3143 3145 3148 3150 3150 3152 3153 3154 3155 3157 3158 3159 3159
3112 3110 3107 3105 3102 3100 3098 3095 3093 3091 3088 3086 3085 3084 3081 3080 3081 3077 3075 3078 3078 3077 3079 3077 3075 3078 3081 3081 3083 3086 3086 3086 3086 3088 3090 3091 3095 3098 3101 3102 3104 3107 3106 3107 3109 3110 3113 3114 3109 3106 3107 3111 3114 3116 3118 3121 3123 3123 3123 3123 3123 3124 3124 3125 3125 3126 3129 3130 3132 3134 3135 3135 3137 3137 3136 3138 3142 3145 3145 3147 3150 3152 3151 3151 3154 3157 3157 3158
3112 3109 3106 3104 3101 3099 3097 3094 3092 3089 3086 3083 3081 3081 3079 3077 3077 3073 3070 3071 3073 3072 3072 3073 3072 3072 3077 3079 3079 3083 3085 3085 3085 3086 3087 3089 3092 3095 3097 3098 3101 3102 3102 3106 3108 3109 3110 3106 3101 3103 3107 3111 3114 3116 3118 3120 3121 3122 3121 3120 3120 3120 3121 3122 3122 3123 3126 3128 3129 3131 3133 3133 3134 3135 3132 3133 3137 3139 3139 3142 3146 3148 3148 3149 3152 3155 3155 3156
3111 3108 3105 3103 3100 3097 3096 3093 3090 3088 3086 3084 3081 3080 3079 3077 3075 3072 3066 3063 3067 3070 3066 3067 3068 3067 3072 3076 3075 3078 3079 3081 3083 3083 3084 3086 3088 3091 3093 3095 3097 3098 3101 3104 3105 3106 3104 3097 3097 3104 3108 3111 3113 3115 3116 3118 3119 3120 3119 3119 3117 3117 3119 3120 3121 3121 3123 3124 3125 3127 3129 3130 3131 3133 3132 3130 3132 3135 3134 3136 3141 3143 3144 3147 3149 3151 3152 3154
3109 3106 3104 3101 3099 3095 3094 3092 3089 3087 3085 3083 3081 3080 3078 3077 3074 3072 3066 3058 3058 3064 3062 3061 3063 3064 3067 3072 3073 3073 3072 3075 3079 3080 3082 3083 3084 3087 3090 3091 3094 3097 3098 3099 3099 3099 3095 3092 3098 3104 3107 3109 3110 3112 3114 3115 3116 3117 3117 3117 3115 3115 3116 3116 3118 3119 3120 3122 3123 3125 3126 3126 3128 3130 3132 3130 3130 3133 3132 3132 3137 3140 3141 3144 3147 3149 3150 3151
3107 3105 3102 3100 3098 3094 3092 3091 3089 3086 3083 3081 3080 3079 3077 3075 3073 3069 3065 3057 3050 3054 3059 3057 3058 3060 3062 3067 3070 3069 3068 3071 3075 3077 3079 3079 3081 3084 3086 3089 3091 3093 3094 3094 3095 3094 3092 3093 3098 3102 3104 3106 3107 3109 3111 3112 3112 3113 3113 3113 3113 3114 3114 3114 3114 3116 3118 3120 3121 3124 3124 3123 3126 3126 3128 3130 3129 3132 3131 3129 3134 3137 3138 3143 3145 3147 3147 3147
3105 3103 3100 3099 3097 3093 3090 3088 3087 3085 3083 3081 3079 3078 3077 3074 3073 3068 3063 3056 3046 3046 3053 3053 3052 3055 3059 3064 3064 3064 3066 3067 3069 3075 3076 3075 3078 3080 3083 3087 3088 3089 3090 3092 3094 3092 3091 3095 3098 3099 3101 3103 3104 3105 3106 3108 3109 3109 3109 3110 3112 3113 3114 3113 3113 3113 3114 3115 3118 3122 3120 3119 3124 3125 3126 3128 3128 3131 3129 3125 3129 3134 3136 3140 3141 3143 3145 3146
3104 3101 3098 3096 3095 3093 3090 3087 3085 3084 3083 3081 3079 3078 3076 3074 3073 3069 3063 3057 3046 3043 3047 3048 3049 3051 3055 3057 3057 3061 3065 3061 3064 3072 3073 3073 3076 3078 3081 3083 3083 3085 3088 3091 3092 3089 3089 3094 3096 3096 3097 3099 3101 3101 3102 3105 3106 3105 3105 3109 3111 3112 3113 3113 3112 3112 3110 3109 3113 3117 3116 3116 3120 3122 3123 3125 3125 3129 3127 3121 3124 3130 3131 3134 3138 3140 3143 3144
3102 3099 3096 3094 3091 3090 3089 3086 3085 3083 3082 3080 3078 3077 3076 3074 3073 3069 3066 3060 3049 3043 3043 3045 3047 3049 3051 3053 3054 3058 3060 3057 3060 3065 3068 3071 3073 3076 3077 3078 3080 3081 3085 3090 3087 3083 3085 3090 3092 3093 3095 3096 3096 3096 3098 3102 3103 3101 3104 3108 3109 3111 3112 3112 3112 3111 3109 3108 3109 3110 3112 3113 3114 3116 3120 3122 3122 3125 3126 3121 3121 3124 3125 3129 3133 3137 3140 3142
3100 3098 3095 3092 3090 3087 3086 3084 3083 3082 3081 3079 3077 3076 3074 3074 3073 3070 3071 3064 3049 3045 3045 3045 3046 3047 3049 3052 3051 3053 3055 3056 3057 3059 3064 3068 3069 3072 3073 3074 3077 3078 3082 3084 3078 3078 3083 3085 3087 3090 3091 3091 3091 3093 3096 3100 3100 3100 3104 3106 3107 3109 3110 3111 3112 3110 3110 3109 3106 3105 3107 3107 3107 3111 3116 3118 3119 3121 3123 3124 3122 3120 3121 3126 3130 3134 3137 3140
3098 3096 3094 3091 3089 3086 3084 3082 3081 3080 3079 3077 3076 3075 3073 3074 3072 3071 3074 3065 3049 3046 3048 3047 3047 3048 3048 3050 3051 3052 3054 3056 3057 3057 3061 3064 3065 3068 3069 3071 3077 3078 3079 3078 3076 3079 3081 3082 3085 3087 3087 3087 3089 3092 3095 3097 3097 3100 3103 3104 3105 3107 3108 3110 3110 3110 3110 3107 3102 3103 3104 3102 3102 3107 3111 3112 3114 3115 3118 3121 3121 3117 3117 3122 3128 3131 3134 3137
3096 3094 3092 3090 3088 3086 3083 3080 3078 3076 3076 3076 3075 3074 3073 3073 3072 3071 3071 3063 3050 3047 3049 3049 3050 3050 3049 3051 3051 3051 3051 3053 3056 3058 3058 3060 3062 3065 3068 3071 3075 3076 3076 3076 3075 3077 3079 3080 3082 3082 3083 3085 3088 3090 3093 3094 3096 3100 3102 3103 3104 3104 3105 3107 3107 3110 3110 3101 3098 3102 3103 3102 3102 3103 3106 3107 3109 3111 3112 3115 3116 3114 3116 3120 3124 3128 3130 3133
3095 3093 3090 3088 3086 3084 3082 3080 3078 3076 3075 3074 3073 3073 3072 3071 3072 3071 3065 3056 3050 3049 3049 3048 3049 3049 3050 3052 3051 3050 3049 3050 3053 3056 3056 3057 3060 3061 3065 3068 3069 3072 3073 3071 3071 3074 3077 3077 3077 3078 3080 3084 3086 3088 3090 3092 3095 3097 3099 3100 3102 3102 3103 3103 3103 3107 3102 3093 3096 3102 3103 3103 3100 3099 3104 3104 3105 3109 3110 3111 3111 3111 3115 3118 3121 3125 3127 3130
3094 3092 3090 3087 3084 3082 3081 3079 3078 3076 3074 3073 3072 3072 3072 3071 3070 3068 3061 3054 3052 3050 3047 3047 3046 3046 3047 3047 3047 3047 3048 3048 3050 3053 3053 3054 3055 3056 3057 3059 3061 3064 3064 3063 3067 3071 3072 3071 3072 3075 3077 3079 3082 3084 3086 3088 3091 3093 3095 3097 3098 3097 3098 3099 3098 3098 3093 3090 3096 3101 3102 3100 3094 3096 3102 3102 3103 3106 3108 3110 3110 3109 3114 3116 3118 3122 3124 3128
3092 3091 3089 3086 3084 3081 3079 3077 3076 3074 3072 3072 3071 3071 3073 3072 3068 3065 3060 3056 3054 3050 3047 3047 3045 3044 3045 3044 3045 3045 3046 3047 3047 3050 3051 3052 3053 3053 3053 3056 3058 3058 3057 3060 3065 3065 3066 3068 3070 3071 3071 3074 3076 3078 3080 3081 3085 3088 3089 3092 3092 3090 3092 3096 3095 3093 3090 3091 3096 3099 3100 3095 3090 3094 3099 3099 3101 3103 3105 3108 3108 3107 3109 3112 3114 3117 3119 3124
3090 3089 3087 3085 3082 3078 3076 3075 3074 3073 3071 3071 3071 3072 3073 3071 3067 3064 3061 3056 3054 3051 3048 3047 3045 3045 3045 3045 3045 3044 3045 3045 3046 3048 3049 3049 3050 3050 3051 3053 3055 3056 3058 3061 3060 3059 3060 3059 3059 3062 3065 3068 3071 3073 3075 3078 3081 3084 3086 3089 3088 3085 3087 3091 3091 3090 3090 3090 3093 3096 3094 3087 3086 3090 3094 3097 3099 3101 3102 3105 3105 3103 3103 3106 3110 3113 3116 3120
3089 3087 3085 3082 3079 3076 3075 3075 3073 3071 3070 3070 3072 3073 3072 3069 3066 3064 3061 3057 3055 3052 3049 3048 3049 3048 3046 3044 3044 3044 3044 3043 3044 3046 3046 3046 3046 3045 3047 3048 3050 3054 3056 3056 3054 3055 3055 3052 3053 3059 3063 3064 3066 3070 3074 3077 3078 3081 3084 3085 3082 3081 3084 3086 3086 3087 3088 3088 3088 3089 3085 3083 3086 3089 3091 3094 3094 3096 3099 3101 3103 3101 3099 3103 3106 3108 3113 3117
3087 3083 3082 3080 3078 3077 3076 3074 3072 3070 3069 3070 3072 3072 3070 3068 3066 3063 3060 3057 3055 3053 3050 3049 3050 3050 3046 3044 3044 3044 3044 3043 3041 3041 3041 3043 3043 3043 3045 3046 3047 3050 3051 3051 3050 3051 3050 3049 3053 3058 3059 3061 3064 3067 3071 3072 3073 3076 3079 3076 3077 3082 3085 3085 3084 3083 3085 3084 3082 3082 3081 3082 3086 3086 3087 3089 3089 3091 3095 3097 3101 3099 3096 3099 3102 3105 3109 3113
3085 3082 3080 3078 3077 3077 3075 3072 3071 3069 3069 3071 3072 3070 3068 3066 3064 3062 3059 3057 3056 3056 3054 3051 3051 3050 3047 3044 3042 3041 3041 3039 3038 3038 3037 3039 3041 3041 3043 3044 3046 3047 3048 3050 3049 3048 3047 3047 3049 3052 3054 3058 3062 3065 3069 3070 3070 3071 3071 3073 3078 3083 3084 3084 3083 3080 3080 3079 3077 3077 3077 3078 3081 3081 3082 3085 3086 3087 3090 3093 3097 3098 3096 3094 3097 3103 3107 3110
3085 3082 3079 3077 3076 3076 3074 3072 3069 3068 3070 3072 3071 3069 3068 3065 3062 3061 3060 3059 3059 3058 3057 3055 3052 3051 3049 3046 3043 3041 3038 3035 3036 3038 3036 3036 3038 3039 3040 3041 3043 3045 3047 3049 3048 3047 3046 3044 3043 3046 3050 3054 3060 3063 3065 3066 3067 3067 3069 3072 3076 3077 3077 3080 3080 3078 3077 3076 3074 3072 3072 3073 3074 3075 3078 3080 3082 3084 3087 3089 3092 3095 3095 3093 3095 3100 3105 3108
3085 3083 3080 3078 3077 3075 3073 3071 3069 3070 3072 3071 3069 3068 3067 3065 3063 3061 3060 3061 3061 3059 3058 3056 3054 3051 3049 3048 3045 3042 3040 3036 3035 3036 3036 3034 3035 3035 3034 3035 3038 3039 3042 3045 3044 3044 3045 3042 3038 3040 3045 3051 3055 3056 3056 3058 3062 3065 3067 3070 3071 3072 3073 3075 3076 3075 3074 3073 3072 3072 3071 3070 3069 3071 3074 3076 3079 3082 3085 3087 3090 3092 3092 3092 3094 3098 3102 3107
3084 3083 3082 3079 3076 3074 3072 3070 3070 3071 3072 3070 3069 3068 3066 3064 3062 3060 3060 3060 3060 3058 3057 3056 3054 3051 3049 3048 3047 3043 3040 3037 3035 3034 3034 3033 3033 3033 3031 3031 3032 3031 3031 3034 3036 3038 3042 3042 3037 3036 3041 3045 3044 3043 3046 3052 3057 3060 3062 3063 3065 3068 3071 3072 3073 3073 3073 3071 3070 3071 3070 3067 3066 3068 3070 3073 3076 3079 3082 3084 3087 3090 3090 3091 3093 3097 3101 3105
3082 3082 3082 3078 3074 3073 3071 3070 3071 3072 3071 3069 3068 3067 3065 3063 3060 3060 3060 3060 3058 3057 3057 3056 3054 3052 3049 3048 3048 3044 3040 3037 3035 3034 3033 3033 3034 3033 3030 3029 3030 3030 3030 3031 3034 3036 3039 3041 3038 3034 3035 3035 3035 3039 3045 3050 3053 3056 3058 3059 3061 3064 3066 3068 3068 3069 3071 3070 3068 3069 3067 3063 3063 3065 3068 3071 3074 3076 3079 3082 3084 3088 3090 3091 3092 3095 3100 3104
3080 3080 3080 3077 3073 3072 3070 3070 3072 3071 3069 3069 3067 3066 3064 3061 3059 3059 3059 3058 3057 3056 3056 3055 3053 3051 3050 3049 3047 3044 3041 3037 3035 3033 3032 3032 3034 3034 3033 3031 3030 3031 3032 3032 3034 3037 3038 3039 3037 3033 3031 3030 3034 3041 3045 3049 3053 3055 3056 3058 3059 3061 3062 3063 3063 3065 3068 3069 3069 3069 3066 3063 3063 3065 3067 3070 3073 3075 3077 3080 3082 3086 3089 3091 3092 3094 3097 3100
3078 3077 3079 3078 3074 3071 3071 3071 3071 3069 3069 3068 3066 3064 3063 3060 3059 3058 3057 3056 3056 3055 3054 3054 3052 3050 3049 3049 3046 3044 3042 3037 3033 3033 3032 3032 3033 3034 3033 3032 3030 3031 3032 3030 3030 3034 3035 3035 3034 3031 3029 3029 3034 3040 3044 3047 3051 3051 3051 3054 3055 3057 3058 3061 3063 3064 3065 3066 3068 3068 3066 3064 3065 3066 3068 3070 3073 3075 3076 3079 3081 3084 3087 3089 3091 3093 3094 3096
3077 3076 3077 3077 3073 3071 3071 3071 3070 3068 3067 3066 3064 3062 3061 3059 3058 3057 3056 3055 3055 3054 3053 3052 3051 3050 3048 3048 3046 3044 3044 3039 3033 3032 3033 3032 3030 3028 3028 3028 3029 3032 3032 3029 3028 3030 3031 3033 3032 3030 3029 3027 3027 3033 3038 3041 3043 3044 3045 3049 3052 3054 3057 3059 3062 3063 3062 3063 3065 3066 3066 3065 3065 3067 3069 3071 3073 3075 3076 3079 3081 3083 3085 3088 3091 3092 3092 3094
3075 3075 3076 3076 3073 3071 3071 3070 3069 3067 3066 3064 3062 3060 3059 3058 3057 3056 3055 3054 3053 3053 3052 3051 3050 3049 3047 3047 3045 3044 3044 3041 3036 3033 3033 3031 3028 3026 3025 3026 3028 3031 3031 3028 3028 3029 3030 3030 3030 3029 3028 3024 3020 3023 3029 3033 3037 3040 3041 3044 3048 3051 3054 3056 3058 3059 3060 3061 3063 3064 3064 3064 3066 3067 3069 3071 3074 3075 3076 3078 3080 3083 3085 3087 3089 3090 3090 3092
3075 3075 3075 3073 3071 3070 3070 3069 3069 3066 3064 3062 3060 3059 3058 3056 3056 3055 3053 3053 3052 3051 3051 3049 3048 3047 3046 3046 3045 3043 3042 3041 3038 3036 3034 3031 3028 3028 3027 3027 3029 3030 3029 3028 3029 3030 3029 3028 3027 3027 3025 3023 3021 3023 3028 3032 3035 3037 3037 3040 3044 3048 3051 3053 3054 3055 3057 3060 3061 3062 3063 3064 3065 3067 3068 3070 3073 3075 3076 3078 3080 3082 3083 3084 3085 3088 3090 3091
3075 3075 3074 3072 3069 3068 3068 3068 3067 3065 3063 3061 3059 3057 3056 3055 3055 3053 3052 3052 3051 3050 3049 3048 3047 3046 3045 3045 3043 3043 3041 3039 3037 3037 3035 3031 3029 3029 3029 3028 3030 3030 3028 3028 3030 3031 3029 3027 3026 3026 3024 3024 3025 3026 3028 3030 3031 3033 3035 3037 3040 3045 3048 3049 3050 3052 3056 3059 3059 3061 3063 3063 3065 3067 3068 3070 3072 3074 3076 3078 3080 3081 3081 3083 3085 3087 3090 3092
3074 3072 3072 3070 3068 3067 3066 3064 3063 3062 3061 3059 3058 3056 3055 3054 3053 3052 3051 3051 3050 3049 3048 3047 3046 3046 3045 3044 3042 3041 3041 3038 3037 3036 3035 3031 3029 3030 3028 3026 3027 3028 3027 3029 3030 3029 3028 3025 3024 3026 3025 3025 3027 3027 3027 3028 3027 3029 3032 3034 3037 3041 3044 3046 3048 3052 3055 3057 3058 3060 3062 3063 3065 3066 3068 3070 3071 3073 3075 3077 3079 3081 3081 3083 3085 3087 3089 3092
3073 3070 3069 3068 3066 3064 3063 3062 3061 3060 3058 3057 3056 3055 3054 3053 3052 3052 3051 3049 3048 3048 3047 3046 3045 3045 3044 3043 3041 3040 3040 3039 3036 3035 3035 3032 3031 3031 3028 3026 3026 3027 3026 3027 3029 3028 3027 3025 3024 3024 3024 3024 3025 3026 3026 3027 3027 3027 3029 3032 3034 3037 3041 3045 3049 3051 3054 3056 3058 3060 3062 3064 3065 3065 3067 3070 3071 3073 3076 3077 3079 3081 3081 3082 3085 3087 3090 3092
3070 3069 3067 3065 3063 3062 3061 3060 3060 3058 3057 3056 3055 3053 3052 3051 3051 3050 3049 3049 3047 3046 3046 3045 3044 3043 3042 3041 3040 3039 3038 3038 3036 3035 3034 3033 3033 3033 3031 3028 3028 3026 3024 3025 3026 3027 3026 3025 3023 3022 3022 3021 3023 3024 3024 3025 3026 3025 3026 3029 3032 3035 3039 3043 3047 3049 3052 3055 3058 3059 3061 3063 3065 3066 3067 3069 3071 3073 3076 3076 3078 3080 3081 3083 3085 3087 3090 3092
3068 3067 3066 3063 3061 3060 3059 3058 3058 3056 3055 3055 3053 3052 3051 3050 3050 3049 3048 3047 3046 3045 3044 3043 3042 3041 3040 3040 3039 3038 3036 3036 3036 3035 3034 3033 3033 3033 3032 3030 3030 3028 3025 3025 3026 3026 3026 3025 3023 3023 3021 3020 3023 3025 3023 3024 3026 3025 3024 3026 3028 3031 3035 3039 3044 3047 3049 3053 3056 3058 3060 3062 3065 3066 3067 3069 3071 3072 3074 3076 3078 3080 3081 3083 3084 3087 3090 3091
3065 3064 3064 3062 3059 3058 3058 3057 3056 3055 3054 3053 3052 3051 3050 3049 3048 3047 3046 3044 3044 3043 3042 3042 3041 3040 3039 3038 3038 3037 3035 3033 3033 3033 3032 3031 3031 3032 3032 3031 3031 3030 3029 3029 3029 3028 3028 3028 3026 3026 3022 3018 3022 3026 3024 3024 3026 3025 3024 3025 3028 3030 3033 3037 3041 3045 3048 3051 3054 3056 3058 3061 3064 3066 3067 3069 3071 3072 3074 3076 3077 3079 3080 3082 3084 3088 3090 3091